Weather History for Pine River, MN

Change the Weather History Date:

Tuesday, September 24, 2013

  Actual Average Record
Temperature  
Mean Temperature 60 °F -  
Max Temperature 71 °F 62 °F 75 °F (1997)
Min Temperature 48 °F 39 °F 26 °F (2000)
Degree Days  
Heating Degree Days 6    
Growing Degree Days 10 (Base 50)    
Moisture  
Dew Point 52 °F    
Average Humidity 80    
Maximum Humidity 100    
Minimum Humidity 57    
Precipitation  
Precipitation 0.00 in - - ()
Sea Level Pressure  
Sea Level Pressure 29.97 in    
Wind  
Wind Speed 5 mph (SSE)    
Max Wind Speed 8 mph    
Max Gust Speed -    
Visibility 10 miles    
Events      
Averages and records for this station are not official NWS values.
T = Trace of Precipitation, MM = Missing Value Source: NWS Daily Summary

Daily Weather History Graph

Daily Weather History Graph

Search for Another Location

Airport:

Trip Planner

Search our weather history database for the weather conditions in past years. The results will help you decide how hot, cold, wet, or windy it might be!

Date:

Astronomy

Sep. 24, 2013 Rise Set
Actual Time 7:07 AM CDT 7:10 PM CDT
Civil Twilight 6:37 AM CDT 7:40 PM CDT
Nautical Twilight 6:01 AM CDT 8:16 PM CDT
Astronomical Twilight 5:25 AM CDT 8:52 PM CDT
Moon 10:09 PM CDT (9/24) 12:41 PM CDT (9/24)
Length of Visible Light 13h 03m
Length of Day
12h 03m
Waning Gibbous, 73% of the Moon is Illuminated
Sep 24
Waning Gibbous
Sep 26
Last Quarter
Oct 4
New
Oct 11
First Quarter
Oct 18
Full

Hourly Weather History & Observations

Time (CDT) Temp. Dew Point Humidity Pressure Visibility Wind Dir Wind Speed Gust Speed Precip Events Conditions
12:13 AM 55.4 °F 51.8 °F 88% 29.93 in 10.0 mi SSE 6.9 mph - N/A   Clear
12:32 AM 55.4 °F 50.0 °F 82% 29.94 in 10.0 mi SSE 6.9 mph - N/A   Clear
12:53 AM 55.4 °F 50.0 °F 82% 29.94 in 10.0 mi SSE 6.9 mph - N/A   Clear
1:13 AM 55.4 °F 50.0 °F 82% 29.95 in 10.0 mi SSE 6.9 mph - N/A   Clear
1:32 AM 55.4 °F 50.0 °F 82% 29.95 in 10.0 mi SSE 6.9 mph - N/A   Clear
1:52 AM 55.4 °F 50.0 °F 82% 29.95 in 10.0 mi SSE 5.8 mph - N/A   Clear
2:12 AM 53.6 °F 50.0 °F 88% 29.95 in 10.0 mi SSE 6.9 mph - N/A   Clear
2:32 AM 53.6 °F 50.0 °F 88% 29.95 in 10.0 mi SSE 6.9 mph - N/A   Clear
2:53 AM 53.6 °F 50.0 °F 88% 29.95 in 10.0 mi SSE 6.9 mph - N/A   Clear
3:12 AM 55.4 °F 50.0 °F 82% 29.95 in 10.0 mi SSE 5.8 mph - N/A   Clear
3:33 AM 55.4 °F 50.0 °F 82% 29.95 in 10.0 mi SSE 4.6 mph - N/A   Clear
3:52 AM 53.6 °F 50.0 °F 88% 29.95 in 10.0 mi SSE 3.5 mph - N/A   Clear
4:13 AM 53.6 °F 48.2 °F 82% 29.95 in 10.0 mi SSE 4.6 mph - N/A   Clear
4:33 AM 51.8 °F 48.2 °F 88% 29.95 in 10.0 mi SSE 4.6 mph - N/A   Clear
4:52 AM 51.8 °F 48.2 °F 88% 29.95 in 10.0 mi SSE 4.6 mph - N/A   Clear
5:13 AM 51.8 °F 48.2 °F 88% 29.95 in 10.0 mi SSE 4.6 mph - N/A   Clear
5:32 AM 51.8 °F 48.2 °F 88% 29.95 in 10.0 mi SSE 5.8 mph - N/A   Clear
5:53 AM 51.8 °F 48.2 °F 88% 29.95 in 10.0 mi SE 3.5 mph - N/A   Clear
6:13 AM 51.8 °F 48.2 °F 88% 29.95 in 10.0 mi SE 4.6 mph - N/A   Clear
6:32 AM 51.8 °F 48.2 °F 88% 29.95 in 10.0 mi SE 4.6 mph - N/A   Clear
6:53 AM 51.8 °F 48.2 °F 88% 29.95 in 10.0 mi SE 4.6 mph - N/A   Clear
7:12 AM 51.8 °F 48.2 °F 88% 29.96 in 10.0 mi SE 5.8 mph - N/A   Clear
7:33 AM 51.8 °F 48.2 °F 88% 29.96 in 10.0 mi SSE 4.6 mph - N/A   Clear
7:52 AM 51.8 °F 50.0 °F 94% 29.96 in 10.0 mi SE 4.6 mph - N/A   Clear
8:13 AM 51.8 °F 50.0 °F 94% 29.96 in 10.0 mi SSE 4.6 mph - N/A   Clear
8:33 AM 51.8 °F 50.0 °F 94% 29.97 in 10.0 mi SSE 4.6 mph - N/A   Clear
8:53 AM 53.6 °F 51.8 °F 94% 29.98 in 10.0 mi SSE 3.5 mph - N/A   Clear
9:13 AM 55.4 °F 51.8 °F 88% 29.98 in 10.0 mi SSE 8.1 mph - N/A   Clear
9:32 AM 55.4 °F 51.8 °F 88% 29.98 in 10.0 mi South 5.8 mph - N/A   Clear
9:52 AM 57.2 °F 51.8 °F 82% 29.98 in 10.0 mi South 6.9 mph - N/A   Clear
10:13 AM 59.0 °F 51.8 °F 77% 29.99 in 10.0 mi SSE 6.9 mph - N/A   Clear
10:32 AM 62.6 °F 53.6 °F 72% 29.99 in 10.0 mi SSE 5.8 mph - N/A   Clear
10:53 AM 60.8 °F 53.6 °F 77% 29.99 in 10.0 mi SSW 3.5 mph - N/A   Clear
11:13 AM 62.6 °F 53.6 °F 72% 29.99 in 10.0 mi SSE 4.6 mph - N/A   Clear
11:32 AM 62.6 °F 53.6 °F 72% 29.99 in 10.0 mi SE 6.9 mph - N/A   Clear
11:53 AM 62.6 °F 53.6 °F 72% 30.00 in 10.0 mi South 3.5 mph - N/A   Clear
12:13 PM 66.2 °F 55.4 °F 68% 29.99 in 10.0 mi SSW 4.6 mph - N/A   Clear
12:32 PM 64.4 °F 55.4 °F 73% 29.99 in 10.0 mi Calm Calm - N/A   Clear
12:53 PM 66.2 °F 55.4 °F 68% 29.99 in 10.0 mi Calm Calm - N/A   Clear
1:13 PM 66.2 °F 55.4 °F 68% 29.98 in 10.0 mi SE 3.5 mph - N/A   Clear
1:32 PM 66.2 °F 55.4 °F 68% 29.98 in 10.0 mi South 4.6 mph - N/A   Clear
1:53 PM 66.2 °F 55.4 °F 68% 29.98 in 10.0 mi Calm Calm - N/A   Clear
2:13 PM 66.2 °F 55.4 °F 68% 29.98 in 10.0 mi South 3.5 mph - N/A   Clear
2:32 PM 68.0 °F 55.4 °F 64% 29.97 in 10.0 mi SSE 4.6 mph - N/A   Clear
2:53 PM 69.8 °F 55.4 °F 60% 29.97 in 10.0 mi Calm Calm - N/A   Clear
3:12 PM 69.8 °F 55.4 °F 60% 29.97 in 10.0 mi South 3.5 mph - N/A   Scattered Clouds
3:33 PM 69.8 °F 57.2 °F 64% 29.97 in 10.0 mi South 5.8 mph - N/A   Scattered Clouds
3:53 PM 69.8 °F 55.4 °F 60% 29.97 in 10.0 mi South 6.9 mph - N/A   Clear
4:12 PM 71.6 °F 55.4 °F 57% 29.96 in 10.0 mi SSE 6.9 mph - N/A   Clear
4:33 PM 69.8 °F 55.4 °F 60% 29.96 in 10.0 mi South 6.9 mph - N/A   Clear
4:53 PM 69.8 °F 55.4 °F 60% 29.96 in 10.0 mi SSE 8.1 mph - N/A   Scattered Clouds
5:12 PM 69.8 °F 55.4 °F 60% 29.97 in 10.0 mi South 5.8 mph - N/A   Scattered Clouds
5:33 PM 69.8 °F 55.4 °F 60% 29.97 in 7.0 mi SSE 6.9 mph - N/A   Clear
5:53 PM 68.0 °F 55.4 °F 64% 29.96 in 10.0 mi SSE 8.1 mph - N/A   Clear
6:12 PM 66.2 °F 55.4 °F 68% 29.97 in 7.0 mi SSE 5.8 mph - N/A   Clear
6:33 PM 66.2 °F 55.4 °F 68% 29.97 in 10.0 mi SSE 4.6 mph - N/A   Clear
6:52 PM 64.4 °F 55.4 °F 73% 29.97 in 10.0 mi Calm Calm - N/A   Clear
7:13 PM 60.8 °F 55.4 °F 82% 29.97 in 10.0 mi Calm Calm - N/A   Clear
7:33 PM 59.0 °F 53.6 °F 82% 29.97 in 10.0 mi Calm Calm - N/A   Clear
7:52 PM 57.2 °F 53.6 °F 88% 29.97 in 10.0 mi Calm Calm - N/A   Clear
8:13 PM 57.2 °F 53.6 °F 88% 29.97 in 10.0 mi Calm Calm - N/A   Clear
8:32 PM 55.4 °F 53.6 °F 94% 29.97 in 10.0 mi Calm Calm - N/A   Clear
8:53 PM 55.4 °F 51.8 °F 88% 29.97 in 10.0 mi Calm Calm - N/A   Clear
9:12 PM 55.4 °F 51.8 °F 88% 29.98 in 10.0 mi Calm Calm - N/A   Clear
9:33 PM 53.6 °F 51.8 °F 94% 29.97 in 10.0 mi Calm Calm - N/A   Clear
9:53 PM 51.8 °F 50.0 °F 94% 29.97 in 10.0 mi Calm Calm - N/A   Clear
10:12 PM 51.8 °F 50.0 °F 94% 29.97 in 10.0 mi Calm Calm - N/A   Clear
10:33 PM 51.8 °F 50.0 °F 94% 29.97 in 10.0 mi Calm Calm - N/A   Clear
10:53 PM 51.8 °F 50.0 °F 94% 29.97 in 7.0 mi Calm Calm - N/A   Clear
11:12 PM 48.2 °F 48.2 °F 100% 29.98 in 7.0 mi Calm Calm - N/A   Clear
11:33 PM 50.0 °F 50.0 °F 100% 29.98 in 5.0 mi Calm Calm - N/A   Clear
11:53 PM 50.0 °F 50.0 °F 100% 29.98 in 5.0 mi Calm Calm - N/A   Clear